Weather History for Evansville, IN

Change the Weather History Date:

Wednesday, May 29, 2013

  Actual Average Record
Temperature  
Mean Temperature 76 °F 70 °F  
Max Temperature 87 °F 81 °F 94 °F (1926)
Min Temperature 65 °F 59 °F 39 °F (1965)
Degree Days  
Heating Degree Days 0 1  
Month to date heating degree days 82 84  
Since 1 July heating degree days 4530 4539  
Cooling Degree Days 11 6  
Month to date cooling degree days 113 96  
Year to date cooling degree days 147 123  
Growing Degree Days 26 (Base 50)    
Moisture  
Dew Point 59 °F    
Average Humidity 58    
Maximum Humidity 73    
Minimum Humidity 42    
Precipitation  
Precipitation 0.00 in 0.18 in 1.59 in (1974)
Month to date precipitation 4.22 5.02  
Year to date precipitation 21.69 19.90  
Snow  
Snow 0.00 in 0.00 in 0.00 in (2002)
Month to date snowfall 0.0 0.0  
Since 1 July snowfall 12.3 11.8  
Snow Depth 0.00 in    
Sea Level Pressure  
Sea Level Pressure 30.01 in    
Wind  
Wind Speed 9 mph (South)    
Max Wind Speed 20 mph    
Max Gust Speed 26 mph    
Visibility 10 miles    
Events      
T = Trace of Precipitation, MM = Missing Value Source: NWS Daily Summary

Daily Weather History Graph

Daily Weather History Graph

Search for Another Location

Airport:

Trip Planner

Search our weather history database for the weather conditions in past years. The results will help you decide how hot, cold, wet, or windy it might be!

Date:

Astronomy

May. 29, 2013 Rise Set
Actual Time 5:30 AM CDT 8:05 PM CDT
Civil Twilight 4:59 AM CDT 8:35 PM CDT
Nautical Twilight 4:21 AM CDT 9:14 PM CDT
Astronomical Twilight 3:38 AM CDT 9:56 PM CDT
Moon No Moon Rise 10:26 AM CDT (5/29)
Length of Visible Light 15h 36m
Length of Day
14h 35m
Waning Gibbous, 73% of the Moon is Illuminated
May 29
Waning Gibbous
May 31
Last Quarter
Jun 8
New
Jun 16
First Quarter
Jun 23
Full

Hourly Weather History & Observations

Time (CDT) Temp. Heat Index Dew Point Humidity Pressure Visibility Wind Dir Wind Speed Gust Speed Precip Events Conditions
12:54 AM 73.0 °F - 55.9 °F 55% 29.99 in 10.0 mi SSE 6.9 mph - N/A   Clear
1:54 AM 72.0 °F - 55.9 °F 57% 30.00 in 10.0 mi South 4.6 mph - N/A   Clear
2:54 AM 71.1 °F - 55.9 °F 59% 30.01 in 10.0 mi SSE 4.6 mph - N/A   Clear
3:54 AM 69.1 °F - 55.9 °F 63% 30.01 in 10.0 mi SSE 3.5 mph - N/A   Clear
4:54 AM 66.9 °F - 55.9 °F 68% 30.04 in 10.0 mi Calm Calm - N/A   Partly Cloudy
5:54 AM 64.9 °F - 55.9 °F 73% 30.05 in 10.0 mi Calm Calm - N/A   Clear
6:54 AM 66.9 °F - 57.0 °F 70% 30.07 in 10.0 mi Calm Calm - N/A   Clear
7:54 AM 71.1 °F - 59.0 °F 66% 30.07 in 10.0 mi SSW 5.8 mph - N/A   Mostly Cloudy
8:54 AM 75.9 °F - 59.0 °F 56% 30.06 in 10.0 mi SSW 9.2 mph - N/A   Clear
9:54 AM 80.1 °F 80.7 °F 59.0 °F 48% 30.05 in 10.0 mi South 13.8 mph - N/A   Clear
10:54 AM 82.9 °F 82.8 °F 59.0 °F 44% 30.05 in 10.0 mi SW 13.8 mph 21.9 mph N/A   Clear
11:54 AM 84.0 °F 84.0 °F 60.1 °F 44% 30.04 in 10.0 mi SSW 15.0 mph 23.0 mph N/A   Clear
12:54 PM 86.0 °F 85.7 °F 60.1 °F 41% 30.03 in 10.0 mi South 18.4 mph 26.5 mph N/A   Scattered Clouds
1:54 PM 86.0 °F 85.7 °F 60.1 °F 41% 30.02 in 10.0 mi SSW 16.1 mph 24.2 mph N/A   Partly Cloudy
2:54 PM 86.0 °F 86.1 °F 61.0 °F 43% 30.01 in 10.0 mi South 12.7 mph 21.9 mph N/A   Scattered Clouds
3:54 PM 84.9 °F 84.8 °F 60.1 °F 43% 29.99 in 10.0 mi South 15.0 mph 25.3 mph N/A   Clear
4:54 PM 86.0 °F 85.7 °F 60.1 °F 41% 29.99 in 10.0 mi SSE 15.0 mph 24.2 mph N/A   Partly Cloudy
5:54 PM 84.9 °F 85.0 °F 61.0 °F 44% 29.97 in 10.0 mi South 11.5 mph 21.9 mph N/A   Partly Cloudy
6:54 PM 84.0 °F 84.9 °F 63.0 °F 49% 29.96 in 10.0 mi South 13.8 mph 20.7 mph N/A   Clear
7:54 PM 82.0 °F 82.4 °F 60.1 °F 47% 29.96 in 10.0 mi South 6.9 mph - N/A   Clear
8:54 PM 80.1 °F 81.1 °F 61.0 °F 52% 29.97 in 10.0 mi SSE 6.9 mph - N/A   Clear
9:54 PM 79.0 °F - 63.0 °F 58% 29.97 in 10.0 mi SSE 6.9 mph - N/A   Clear
10:54 PM 78.1 °F - 63.0 °F 60% 29.98 in 10.0 mi SSE 8.1 mph - N/A   Clear
11:54 PM 77.0 °F - 63.0 °F 62% 30.00 in 10.0 mi SE 4.6 mph - N/A   Clear